This is the latest recevied weather packets stored in our database for station/object F4OFF-10. If no packets are shown the sender has not sent any weather packets the latest 10 day(s).
| Time | Temp. | Humidity | Pressure | Rain* | Wind** | Luminosity | Snow |
|---|---|---|---|---|---|---|---|
| 1777582644 | 23.33° C | 45% | 1025.1 hPa | - | - | - | - |
| 1777580855 | 23.33° C | 45% | 1024.8 hPa | - | - | - | - |
| 1777580844 | 23.33° C | 45% | 1024.8 hPa | - | - | - | - |
| 1777579055 | 23.33° C | 45% | 1024.5 hPa | - | - | - | - |
| 1777579044 | 23.33° C | 45% | 1024.5 hPa | - | - | - | - |
| 1777577244 | 23.89° C | 45% | 1024 hPa | - | - | - | - |
| 1777575444 | 23.89° C | 45% | 1023.4 hPa | - | - | - | - |
| 1777573644 | 23.89° C | 45% | 1022.9 hPa | - | - | - | - |
| 1777571844 | 23.89° C | 44% | 1022.4 hPa | - | - | - | - |
| 1777570054 | 23.89° C | 44% | 1021.9 hPa | - | - | - | - |
| 1777570054 | 23.89° C | 44% | 1021.9 hPa | - | - | - | - |
| 1777570043 | 23.89° C | 44% | 1021.9 hPa | - | - | - | - |
| 1777568243 | 23.89° C | 44% | 1021.6 hPa | - | - | - | - |
| 1777566443 | 24.44° C | 44% | 1021.3 hPa | - | - | - | - |
| 1777564643 | 24.44° C | 44% | 1020.9 hPa | - | - | - | - |
| 1777562843 | 24.44° C | 44% | 1020.9 hPa | - | - | - | - |
| 1777561043 | 25° C | 44% | 1020.7 hPa | - | - | - | - |
| 1777559243 | 24.44° C | 45% | 1020.6 hPa | - | - | - | - |
| 1777557443 | 24.44° C | 45% | 1021 hPa | - | - | - | - |
| 1777555642 | 24.44° C | 45% | 1021.1 hPa | - | - | - | - |
| 1777553842 | 24.44° C | 45% | 1021.3 hPa | - | - | - | - |
| 1777552042 | 23.89° C | 45% | 1021.4 hPa | - | - | - | - |
| 1777550243 | 23.89° C | 45% | 1021.7 hPa | - | - | - | - |
| 1777548453 | 23.33° C | 45% | 1021.9 hPa | - | - | - | - |
| 1777548442 | 23.33° C | 45% | 1021.9 hPa | - | - | - | - |
* Rain since midnight (hover to see other rain measurements)
** Current wind speed in m/s (hover to see current wind gust speed)